1505703601.13,30991,13.19,73276.8,-4.29,-5.27,-5.23,0,*59
1505703602.36,30992,13.19,73278.5,-4.29,-5.27,-5.35,0,*5D
1505703603.65,30993,13.19,73280.5,-4.27,-5.31,-5.23,0,*52
1505703604.88,30994,13.19,73276.0,-4.27,-5.35,-5.35,0,*56
1505703606.1,30995,13.19,73274.3,-4.27,-5.43,-5.43,0,*57
1505703607.33,30996,13.19,73270.3,-4.29,-5.39,-5.31,0,*52
1505703608.54,30997,13.19,73266.3,-4.29,-5.47,-5.39,0,*52
1505703609.75,30998,13.19,73260.0,-4.29,-5.47,-5.47,0,*54
1505703610.96,30999,13.19,73262.0,-4.29,-5.51,-5.51,0,*55
1505703612.17,31000,13.19,73262.8,-4.29,-5.39,-5.47,0,*54
1505703613.38,31001,13.19,73266.0,-4.29,-5.47,-5.51,0,*5B
1505703614.59,31002,13.19,73268.0,-4.29,-5.51,-5.51,0,*5F
1505703615.79,31003,13.19,73270.5,-4.33,-5.39,-5.39,0,*55
1505703617.0,31004,13.19,73270.5,-4.33,-5.39,-5.35,0,*5E
1505703618.2,31005,13.19,73264.5,-4.33,-5.47,-5.35,0,*56
1505703619.4,31006,13.19,73262.5,-4.29,-5.35,-5.35,0,*5B
1505703620.61,31007,13.19,73264.8,-4.29,-5.35,-5.35,0,*5A
1505703621.81,31008,13.19,73260.3,-4.33,-5.39,-5.35,0,*52
1505703623.01,31009,13.19,73264.8,-4.33,-5.39,-5.39,0,*5F
1505703624.22,31010,13.19,73264.8,-4.33,-5.47,-5.39,0,*5E
1505703625.42,31011,13.19,73262.3,-4.33,-5.39,-5.39,0,*56
1505703626.63,31012,13.19,73256.8,-4.29,-5.47,-5.39,0,*57
1505703627.83,31013,13.19,73262.0,-4.33,-5.47,-5.47,0,*54
1505703629.09,31014,13.19,73270.0,-4.33,-5.61,-5.61,0,*53
1505703630.35,31015,13.19,73276.5,-4.33,-5.61,-5.61,0,*52
1505703631.58,31016,13.19,73270.0,-4.33,-5.51,-5.61,0,*52
1505703632.81,31017,13.19,73262.0,-4.29,-5.61,-5.51,0,*58
1505703634.05,31018,13.19,73262.0,-4.33,-5.51,-5.61,0,*5C
1505703635.28,31019,13.19,73260.3,-4.33,-5.61,-5.51,0,*5D
1505703636.49,31020,13.19,73264.0,-4.33,-5.51,-5.51,0,*54
1505703637.7,31021,13.19,73256.5,-4.33,-5.51,-5.51,0,*55
1505703638.95,31022,13.19,73262.5,-4.35,-5.55,-5.65,0,*53
1505703640.19,31023,13.19,73264.3,-4.35,-5.55,-5.55,0,*51
1505703641.42,31024,13.19,73262.0,-4.35,-5.51,-5.43,0,*55
1505703642.67,31025,13.19,73266.0,-4.37,-5.31,-5.31,0,*55
1505703643.89,31026,13.19,73268.8,-4.35,-5.39,-5.39,0,*54
1505703645.12,31027,13.19,73266.0,-4.35,-5.39,-5.39,0,*55
1505703646.34,31028,13.19,73266.3,-4.35,-5.39,-5.39,0,*5A
1505703647.53,31029,13.19,73262.8,-4.37,-5.39,-5.39,0,*59
1505703648.76,31030,13.19,73260.3,-4.35,-5.39,-5.39,0,*53
1505703649.99,31031,13.19,73260.0,-4.35,-5.39,-5.39,0,*52
1505703651.2,31032,13.19,73260.8,-4.37,-5.43,-5.31,0,*56
1505703652.39,31033,13.19,73268.0,-4.37,-5.39,-5.39,0,*52
1505703653.64,31034,13.19,73270.8,-4.37,-5.31,-5.31,0,*55
1505703654.92,31035,13.19,73264.3,-4.35,-5.31,-5.27,0,*51
1505703656.17,31036,13.19,73262.5,-4.37,-5.19,-5.19,0,*57
1505703657.45,31037,13.19,73264.0,-4.35,-5.19,-5.19,0,*54
1505703658.69,31038,13.19,73264.8,-4.37,-5.19,-5.15,0,*55
1505703659.97,31039,13.19,73264.5,-4.35,-5.15,-5.11,0,*5E
1505703661.25,31040,13.19,73258.3,-4.35,-5.15,-5.15,0,*54
1505703662.53,31041,13.19,73256.8,-4.35,-5.19,-5.19,0,*55
1505703663.8,31042,13.19,73264.3,-4.33,-5.23,-5.23,0,*50
1505703665.08,31043,13.13,73262.0,-4.35,-5.31,-5.31,0,*57
1505703666.36,31044,13.19,73264.8,-4.35,-5.31,-5.31,0,*50
1505703667.62,31045,13.19,73264.5,-4.35,-5.39,-5.31,0,*59
1505703668.87,31046,13.19,73268.0,-4.35,-5.39,-5.31,0,*5A
1505703670.1,31047,13.19,73262.0,-4.35,-5.39,-5.39,0,*53
1505703671.32,31048,13.19,73266.8,-4.35,-5.39,-5.39,0,*5C
1505703672.55,31049,13.19,73270.5,-4.35,-5.39,-5.51,0,*53
1505703673.78,31050,13.19,73266.0,-4.35,-5.39,-5.39,0,*55
1505703675.0,31051,13.19,73262.5,-4.35,-5.43,-5.39,0,*59
1505703676.22,31052,13.19,73260.0,-4.35,-5.43,-5.51,0,*54
1505703677.45,31053,13.19,73264.8,-4.35,-5.43,-5.51,0,*55
1505703678.68,31054,13.19,73266.8,-4.35,-5.51,-5.43,0,*52
1505703679.91,31055,13.19,73270.0,-4.35,-5.51,-5.51,0,*50
1505703681.13,31056,13.19,73270.8,-4.35,-5.39,-5.43,0,*5E
1505703682.36,31057,13.19,73266.3,-4.35,-5.43,-5.39,0,*5F
1505703683.57,31058,13.19,73262.0,-4.37,-5.39,-5.31,0,*57
1505703684.83,31059,13.19,73258.5,-4.35,-5.31,-5.39,0,*54
1505703686.11,31060,13.19,73270.8,-4.35,-5.31,-5.31,0,*56
1505703687.37,31061,13.19,73268.0,-4.35,-5.39,-5.31,0,*5F
1505703688.61,31062,13.19,73264.3,-4.37,-5.31,-5.31,0,*56
1505703689.9,31063,13.19,73270.0,-4.35,-5.31,-5.31,0,*55
1505703691.18,31064,13.19,73268.0,-4.35,-5.27,-5.27,0,*52
1505703692.42,31065,13.19,73270.5,-4.37,-5.19,-5.27,0,*5C
1505703693.67,31066,13.19,73268.8,-4.37,-5.19,-5.19,0,*52
1505703694.95,31067,13.19,73268.8,-4.35,-5.15,-5.11,0,*55
1505703696.23,31068,13.19,73262.8,-4.35,-5.11,-5.11,0,*5E
1505703697.5,31069,13.19,73258.8,-4.35,-5.11,-5.11,0,*5F
1505703698.78,31070,13.19,73258.0,-4.35,-5.15,-5.15,0,*57
1505703700.07,31071,13.19,73254.0,-4.35,-5.15,-5.15,0,*56
1505703701.35,31072,13.19,73256.0,-4.35,-5.15,-5.15,0,*55
1505703702.63,31073,13.19,73256.5,-4.35,-5.27,-5.27,0,*54
1505703703.91,31074,13.19,73254.5,-4.35,-5.27,-5.27,0,*53
1505703705.16,31075,13.19,73256.8,-4.37,-5.27,-5.27,0,*50
1505703706.41,31076,13.19,73260.0,-4.35,-5.39,-5.31,0,*59
1505703707.63,31077,13.19,73260.0,-4.35,-5.43,-5.43,0,*50
1505703708.86,31078,13.19,73260.8,-4.35,-5.43,-5.43,0,*5F
1505703710.08,31079,13.19,73278.0,-4.35,-5.43,-5.43,0,*5E
1505703711.3,31080,13.19,73272.0,-4.35,-5.43,-5.43,0,*58
1505703712.58,31081,13.19,73262.8,-4.35,-5.31,-5.27,0,*5E
1505703713.83,31082,13.19,73260.5,-4.37,-5.27,-5.27,0,*58
1505703715.11,31083,13.19,73270.8,-4.35,-5.19,-5.27,0,*56
1505703716.39,31084,13.19,73270.5,-4.35,-5.27,-5.19,0,*51
1505703717.67,31085,13.19,73264.5,-4.35,-5.27,-5.27,0,*5D
1505703718.92,31086,13.19,73266.5,-4.37,-5.19,-5.19,0,*5C
1505703720.2,31087,13.19,73258.3,-4.35,-5.19,-5.19,0,*5F
1505703721.48,31088,13.19,73260.5,-4.35,-5.19,-5.19,0,*50
1505703722.76,31089,13.19,73260.8,-4.35,-5.19,-5.19,0,*51
1505703724.04,31090,13.19,73266.8,-4.35,-5.27,-5.19,0,*54
1505703725.32,31091,13.19,73266.5,-4.35,-5.27,-5.27,0,*58
1505703726.6,31092,13.19,73268.5,-4.35,-5.27,-5.27,0,*5B
1505703727.86,31093,13.19,73262.5,-4.35,-5.39,-5.31,0,*52
1505703729.14,31094,13.19,73268.5,-4.35,-5.27,-5.27,0,*5D
1505703730.42,31095,13.19,73270.8,-4.35,-5.27,-5.27,0,*5C
1505703731.7,31096,13.19,73264.0,-4.35,-5.27,-5.19,0,*52
1505703732.98,31097,13.19,73272.0,-4.35,-5.27,-5.27,0,*5E
1505703734.26,31098,13.19,73262.5,-4.35,-5.19,-5.19,0,*51
1505703735.54,31099,13.19,73258.3,-4.35,-5.19,-5.19,0,*50
1505703736.82,31100,13.19,73262.0,-4.35,-5.27,-5.19,0,*5C
1505703738.07,31101,13.19,73266.3,-4.37,-5.19,-5.19,0,*52
1505703739.35,31102,13.19,73264.0,-4.35,-5.27,-5.19,0,*5E
1505703740.59,31103,13.19,73266.0,-4.37,-5.27,-5.27,0,*50
1505703741.88,31104,13.19,73264.5,-4.35,-5.31,-5.27,0,*52
1505703743.1,31105,13.19,73264.0,-4.37,-5.39,-5.31,0,*5E
1505703744.38,31106,13.19,73256.8,-4.35,-5.31,-5.31,0,*57
1505703745.66,31107,13.19,73262.0,-4.35,-5.19,-5.19,0,*56
1505703746.94,31108,13.19,73260.3,-4.35,-5.19,-5.19,0,*59
1505703748.22,31109,13.19,73258.0,-4.35,-5.19,-5.19,0,*58
1505703749.48,31110,13.19,73256.3,-4.33,-5.23,-5.23,0,*56
1505703750.75,31111,13.19,73262.0,-4.33,-5.23,-5.23,0,*57
1505703752.01,31112,13.19,73260.5,-4.33,-5.23,-5.27,0,*50
1505703753.29,31113,13.19,73264.8,-4.35,-5.27,-5.31,0,*54
1505703754.54,31114,13.19,73262.0,-4.35,-5.31,-5.39,0,*5C
1505703755.83,31115,13.19,73264.0,-4.35,-5.31,-5.19,0,*5F
1505703757.11,31116,13.19,73266.5,-4.35,-5.27,-5.27,0,*56
1505703758.35,31117,13.19,73266.3,-4.37,-5.27,-5.19,0,*58
1505703759.61,31118,13.19,73266.8,-4.33,-5.23,-5.23,0,*5E
1505703760.9,31119,13.19,73266.5,-4.35,-5.27,-5.19,0,*54
1505703762.18,31120,13.19,73260.3,-4.35,-5.19,-5.19,0,*53
1505703763.46,31121,13.19,73260.0,-4.35,-5.19,-5.19,0,*52
1505703764.74,31122,13.19,73266.0,-4.35,-5.27,-5.19,0,*5C
1505703766.02,31123,13.19,73262.5,-4.35,-5.27,-5.19,0,*5D
1505703767.29,31124,13.19,73258.8,-4.35,-5.27,-5.31,0,*50
1505703768.58,31125,13.19,73258.8,-4.35,-5.27,-5.27,0,*56
1505703769.86,31126,13.19,73264.0,-4.35,-5.27,-5.27,0,*55
1505703771.14,31127,13.19,73266.0,-4.35,-5.19,-5.27,0,*59
1505703772.4,31128,13.19,73270.3,-4.33,-5.15,-5.15,0,*5D
1505703773.66,31129,13.19,73268.8,-4.33,-5.15,-5.15,0,*5C
1505703774.94,31130,13.19,73256.8,-4.35,-5.19,-5.19,0,*52
1505703776.2,31131,13.19,73252.8,-4.33,-5.07,-5.11,0,*52
1505703777.45,31132,13.19,73256.8,-4.33,-5.11,-5.11,0,*56
1505703778.73,31133,13.19,73258.8,-4.35,-5.15,-5.15,0,*51
1505703779.99,31134,13.19,73262.0,-4.33,-5.15,-5.15,0,*50
1505703781.26,31135,13.19,73252.5,-4.33,-5.23,-5.23,0,*51
1505703782.51,31136,13.19,73248.0,-4.35,-5.39,-5.31,0,*5C
1505703783.74,31137,13.19,73256.3,-4.33,-5.27,-5.35,0,*50
1505703785.02,31138,13.19,73256.0,-4.35,-5.31,-5.19,0,*50
1505703786.28,31139,13.19,73254.8,-4.35,-5.31,-5.39,0,*53
1505703787.5,31140,13.13,73244.0,-4.35,-5.39,-5.39,0,*55
1505703788.76,31141,13.19,73244.0,-4.35,-5.39,-5.31,0,*5C
1505703790.01,31142,13.13,73246.3,-4.35,-5.31,-5.39,0,*5F
1505703791.24,31143,13.19,73246.3,-4.35,-5.39,-5.39,0,*56
1505703792.46,31144,13.19,73248.5,-4.35,-5.39,-5.39,0,*51
1505703793.72,31145,13.19,73258.0,-4.35,-5.39,-5.31,0,*58
1505703794.94,31146,13.19,73256.3,-4.35,-5.39,-5.39,0,*53
1505703796.22,31147,13.19,73260.5,-4.35,-5.31,-5.31,0,*52
1505703797.47,31148,13.19,73262.5,-4.37,-5.31,-5.31,0,*5F
1505703798.7,31149,13.19,73260.5,-4.35,-5.39,-5.39,0,*5C
1505703799.95,31150,13.19,73260.8,-4.35,-5.31,-5.39,0,*5C
1505703801.17,31151,13.19,73256.8,-4.37,-5.31,-5.39,0,*5F
1505703802.45,31152,13.19,73256.3,-4.35,-5.31,-5.31,0,*56
1505703803.67,31153,13.19,73258.0,-4.37,-5.39,-5.31,0,*5D
1505703804.95,31154,13.19,73260.3,-4.35,-5.27,-5.31,0,*57
1505703806.14,31155,13.19,73256.5,-4.37,-5.39,-5.39,0,*53
1505703807.33,31156,13.19,73252.3,-4.37,-5.39,-5.39,0,*50
1505703808.56,31157,13.19,73252.8,-4.35,-5.39,-5.39,0,*53
1505703809.74,31158,13.19,73258.8,-4.37,-5.39,-5.43,0,*53
1505703810.97,31159,13.19,73264.0,-4.35,-5.39,-5.39,0,*5D
1505703812.22,31160,13.19,73262.8,-4.35,-5.31,-5.39,0,*5F
1505703813.44,31161,13.19,73262.5,-4.37,-5.31,-5.39,0,*5C
1505703814.63,31162,13.19,73260.5,-4.37,-5.39,-5.39,0,*57
1505703815.89,31163,13.19,73266.3,-4.35,-5.31,-5.39,0,*5C
1505703817.17,31164,13.19,73256.5,-4.35,-5.31,-5.19,0,*59
1505703818.41,31165,13.19,73262.8,-4.37,-5.19,-5.19,0,*50
1505703819.66,31166,13.19,73264.3,-4.37,-5.19,-5.19,0,*53
1505703820.94,31167,13.19,73264.5,-4.35,-5.19,-5.15,0,*5C
1505703822.18,31168,13.19,73266.3,-4.37,-5.19,-5.15,0,*51
1505703823.42,31169,13.19,73268.0,-4.37,-5.19,-5.15,0,*50
1505703824.67,31170,13.19,73266.0,-4.37,-5.19,-5.15,0,*58
1505703825.95,31171,13.19,73246.3,-4.35,-5.27,-5.15,0,*56
1505703827.23,31172,13.19,73256.3,-4.35,-5.15,-5.11,0,*50
1505703828.51,31173,13.19,73262.8,-4.35,-5.11,-5.03,0,*56
1505703829.78,31174,13.19,73256.5,-4.35,-5.11,-5.11,0,*52
1505703831.06,31175,13.19,73256.0,-4.35,-5.11,-5.11,0,*53
1505703832.34,31176,13.19,73252.5,-4.35,-5.15,-5.15,0,*50
1505703833.62,31177,13.19,73258.3,-4.35,-5.15,-5.15,0,*51
1505703834.88,31178,13.19,73260.5,-4.33,-5.11,-5.11,0,*58
1505703836.16,31179,13.19,73262.0,-4.35,-5.15,-5.11,0,*5B
1505703837.43,31180,13.19,73262.5,-4.35,-5.11,-5.11,0,*59
1505703838.65,31181,13.19,73266.8,-4.35,-4.99,-4.99,0,*58
1505703839.9,31182,13.19,73268.5,-4.33,-4.85,-4.81,0,*59
1505703841.15,31183,13.19,73268.8,-4.33,-4.81,-4.85,0,*58
1505703842.4,31184,13.19,73270.0,-4.33,-4.81,-4.81,0,*5B
1505703843.65,31185,13.13,73260.5,-4.29,-4.81,-4.85,0,*55
1505703844.91,31186,13.19,73244.5,-4.33,-5.07,-4.93,0,*55
1505703846.11,31187,13.19,73248.3,-4.29,-4.99,-4.99,0,*53
1505703847.33,31188,13.19,73254.5,-4.33,-4.99,-4.93,0,*5D
1505703848.55,31189,13.19,73250.8,-4.29,-4.93,-4.99,0,*57
1505703849.8,31190,13.19,73248.8,-4.29,-5.11,-5.11,0,*55
1505703851.07,31191,13.19,73234.3,-4.29,-5.07,-5.07,0,*54
1505703852.33,31192,13.19,73236.8,-4.29,-5.11,-5.11,0,*57
1505703853.58,31193,13.19,73250.5,-4.29,-5.11,-5.15,0,*52
1505703854.83,31194,13.19,73254.8,-4.33,-5.11,-5.11,0,*5A
1505703856.09,31195,13.19,73260.3,-4.29,-5.11,-5.11,0,*50
1505703857.35,31196,13.19,73258.5,-4.29,-5.11,-5.11,0,*53
1505703858.6,31197,13.19,73256.8,-4.29,-5.11,-5.15,0,*56
1505703859.87,31198,13.19,73258.5,-4.33,-5.23,-5.23,0,*56
1505703861.13,31199,13.19,73264.5,-4.29,-5.23,-5.15,0,*59
1505703862.39,31200,13.19,73262.3,-4.29,-5.23,-5.15,0,*5A
1505703863.65,31201,13.19,73254.3,-4.33,-5.15,-5.15,0,*55
1505703864.91,31202,13.19,73248.0,-4.29,-5.15,-5.15,0,*5D
1505703866.18,31203,13.19,73254.5,-4.29,-5.15,-5.15,0,*5C
1505703867.43,31204,13.13,73250.8,-4.33,-5.23,-5.15,0,*55
1505703868.7,31205,13.19,73260.0,-4.29,-5.23,-5.23,0,*5A
1505703869.96,31206,13.19,73262.8,-4.29,-5.27,-5.27,0,*59
1505703871.23,31207,13.19,73266.0,-4.29,-5.23,-5.27,0,*5C
1505703872.49,31208,13.19,73266.5,-4.33,-5.23,-5.23,0,*5C
1505703873.76,31209,13.19,73270.0,-4.33,-5.23,-5.23,0,*5D
1505703875.02,31210,13.19,73268.5,-4.33,-5.15,-5.15,0,*55
1505703876.28,31211,13.19,73270.0,-4.33,-5.15,-5.23,0,*51
1505703877.54,31212,13.19,73262.5,-4.33,-5.23,-5.15,0,*52
1505703878.8,31213,13.19,73258.0,-4.33,-5.15,-5.15,0,*56
1505703880.06,31214,13.19,73254.5,-4.33,-5.23,-5.23,0,*51
1505703881.32,31215,13.19,73244.5,-4.33,-5.23,-5.23,0,*50
1505703882.58,31216,13.13,73254.5,-4.33,-5.27,-5.23,0,*57
1505703883.81,31217,13.19,73256.8,-4.35,-5.39,-5.39,0,*54
1505703885.07,31218,13.19,73258.8,-4.33,-5.27,-5.27,0,*5D
1505703886.33,31219,13.19,73256.3,-4.33,-5.27,-5.27,0,*5C
1505703887.59,31220,13.19,73260.5,-4.33,-5.15,-5.15,0,*56
1505703888.85,31221,13.19,73266.5,-4.29,-5.15,-5.15,0,*5C
1505703890.11,31222,13.19,73266.5,-4.33,-5.15,-5.15,0,*54
1505703891.37,31223,13.19,73262.3,-4.33,-5.23,-5.15,0,*50
1505703892.63,31224,13.19,73252.0,-4.33,-5.23,-5.23,0,*52
1505703893.89,31225,13.19,73252.8,-4.33,-5.23,-5.27,0,*57
1505703895.16,31226,13.19,73256.8,-4.29,-5.23,-5.27,0,*5F
1505703896.42,31227,13.19,73256.3,-4.33,-5.15,-5.15,0,*51
1505703897.68,31228,13.19,73258.5,-4.33,-5.23,-5.23,0,*5E
1505703898.95,31229,13.19,73254.5,-4.33,-5.23,-5.23,0,*5F
1505703900.2,31230,13.19,73260.0,-4.33,-5.15,-5.15,0,*57
1505703901.46,31231,13.19,73260.5,-4.33,-5.15,-5.15,0,*56
1505703902.72,31232,13.19,73268.5,-4.33,-5.15,-5.15,0,*55
1505703903.98,31233,13.19,73264.8,-4.33,-5.23,-5.15,0,*51
1505703905.24,31234,13.19,73256.3,-4.33,-5.15,-5.15,0,*53
1505703906.5,31235,13.19,73248.5,-4.33,-5.15,-5.15,0,*52
1505703907.76,31236,13.19,73244.8,-4.33,-5.15,-5.23,0,*54
1505703909.03,31237,13.19,73260.0,-4.33,-5.15,-5.23,0,*55
1505703910.29,31238,13.19,73254.5,-4.33,-5.15,-5.23,0,*5A
1505703911.55,31239,13.19,73258.0,-4.33,-5.23,-5.23,0,*5E
1505703912.82,31240,13.19,73260.5,-4.33,-5.23,-5.23,0,*50
1505703914.02,31241,13.19,73270.3,-4.33,-5.35,-5.35,0,*51
1505703915.28,31242,13.19,73262.5,-4.33,-5.27,-5.27,0,*52
1505703916.54,31243,13.19,73264.8,-4.29,-5.27,-5.27,0,*58
1505703917.82,31244,13.19,73268.0,-4.35,-5.31,-5.31,0,*52
1505703919.1,31245,13.19,73272.0,-4.35,-5.31,-5.31,0,*53
1505703920.36,31246,13.13,73270.3,-4.33,-5.27,-5.27,0,*56
1505703921.62,31247,13.19,73266.8,-4.33,-5.27,-5.27,0,*57
1505703922.82,31248,13.19,73252.0,-4.33,-5.35,-5.35,0,*58
1505703924.05,31249,13.19,73254.3,-4.35,-5.39,-5.39,0,*5F
1505703925.27,31250,13.19,73254.5,-4.35,-5.43,-5.39,0,*5A
1505703926.49,31251,13.19,73258.8,-4.35,-5.43,-5.43,0,*56
1505703927.75,31252,13.19,73266.8,-4.35,-5.31,-5.39,0,*5D
1505703929.03,31253,13.19,73266.8,-4.35,-5.27,-5.27,0,*54
1505703930.31,31254,13.19,73266.0,-4.35,-5.19,-5.27,0,*5E
1505703931.59,31255,13.19,73260.8,-4.35,-5.19,-5.19,0,*52
1505703932.87,31256,13.19,73260.8,-4.35,-5.19,-5.19,0,*51
1505703934.16,31257,13.19,73262.0,-4.35,-5.27,-5.27,0,*50
1505703935.44,31258,13.19,73258.5,-4.35,-5.27,-5.27,0,*5F
1505703936.72,31259,13.19,73260.3,-4.35,-5.27,-5.27,0,*5E
1505703938.0,31260,13.19,73256.0,-4.35,-5.27,-5.19,0,*59
1505703939.28,31261,13.19,73260.0,-4.35,-5.27,-5.27,0,*55
1505703940.53,31262,13.19,73258.3,-4.37,-5.31,-5.31,0,*54
1505703941.81,31263,13.19,73260.3,-4.35,-5.31,-5.31,0,*57
1505703943.04,31264,13.19,73260.0,-4.35,-5.39,-5.39,0,*50
1505703944.32,31265,13.19,73270.8,-4.35,-5.31,-5.31,0,*51
1505703945.57,31266,13.19,73264.3,-4.37,-5.27,-5.27,0,*50
1505703946.85,31267,13.19,73260.3,-4.35,-5.31,-5.27,0,*54
1505703948.13,31268,13.19,73262.8,-4.35,-5.19,-5.19,0,*5C
1505703949.41,31269,13.19,73258.3,-4.35,-5.27,-5.27,0,*5D
1505703950.66,31270,13.19,73266.0,-4.37,-5.19,-5.27,0,*5A
1505703951.94,31271,13.19,73262.8,-4.35,-5.27,-5.19,0,*59
1505703953.22,31272,13.19,73260.5,-4.35,-5.19,-5.19,0,*57
1505703954.5,31273,13.19,73268.0,-4.35,-5.15,-5.15,0,*56
1505703955.78,31274,13.19,73264.0,-4.35,-5.15,-5.15,0,*51
1505703957.07,31275,13.19,73264.3,-4.35,-5.15,-5.15,0,*50
1505703958.35,31276,13.19,73266.5,-4.35,-5.15,-5.15,0,*53
1505703959.63,31277,13.19,73270.0,-4.35,-5.27,-5.19,0,*5F
1505703960.91,31278,13.19,73272.0,-4.35,-5.27,-5.27,0,*5D
1505703962.19,31279,13.19,73274.0,-4.35,-5.27,-5.27,0,*5C
1505703963.47,31280,13.19,73270.8,-4.35,-5.27,-5.31,0,*5D
1505703964.73,31281,13.19,73264.5,-4.35,-5.39,-5.31,0,*53
1505703966.01,31282,13.19,73264.5,-4.35,-5.31,-5.31,0,*58
1505703967.3,31283,13.19,73266.0,-4.35,-5.31,-5.27,0,*5E
1505703968.54,31284,13.19,73260.8,-4.37,-5.27,-5.27,0,*5C
1505703969.83,31285,13.19,73266.3,-4.35,-5.31,-5.27,0,*58
1505703971.02,31286,13.19,73270.5,-4.37,-5.39,-5.39,0,*5E
1505703972.3,31287,13.19,73274.3,-4.35,-5.31,-5.31,0,*5D
1505703973.58,31288,13.19,73274.0,-4.35,-5.31,-5.31,0,*52
1505703974.87,31289,13.19,73266.3,-4.35,-5.31,-5.27,0,*54
1505703976.14,31290,13.19,73266.5,-4.35,-5.11,-5.15,0,*5F
1505703977.39,31291,13.19,73260.0,-4.37,-5.15,-5.11,0,*5C
1505703978.66,31292,13.13,73260.0,-4.35,-5.11,-5.15,0,*5D
1505703979.95,31293,13.19,73268.8,-4.35,-5.15,-5.15,0,*58
1505703981.23,31294,13.19,73258.0,-4.35,-5.15,-5.15,0,*5F
1505703982.47,31295,13.19,73262.8,-4.37,-5.19,-5.15,0,*50
1505703983.75,31296,13.19,73264.3,-4.35,-5.19,-5.15,0,*51
1505703985.0,31297,13.19,73264.3,-4.37,-5.27,-5.15,0,*5F
1505703986.28,31298,13.19,73262.5,-4.35,-5.27,-5.19,0,*5E
1505703987.52,31299,13.19,73262.0,-4.37,-5.31,-5.31,0,*50
1505703988.78,31300,13.19,73268.8,-4.35,-5.31,-5.43,0,*56
1505703990.0,31301,13.19,73264.8,-4.35,-5.43,-5.51,0,*51
1505703991.22,31302,13.19,73264.3,-4.35,-5.43,-5.39,0,*5C
1505703992.44,31303,13.19,73266.3,-4.35,-5.43,-5.43,0,*50
1505703993.63,31304,13.19,73266.0,-4.37,-5.43,-5.43,0,*55
1505703994.88,31305,13.19,73270.0,-4.37,-5.31,-5.31,0,*54
1505703996.06,31306,13.19,73268.3,-4.37,-5.39,-5.43,0,*5A
1505703997.29,31307,13.19,73268.0,-4.35,-5.39,-5.39,0,*54
1505703998.52,31308,13.19,73266.8,-4.35,-5.39,-5.39,0,*5B
1505703999.73,31309,13.19,73268.8,-4.37,-5.39,-5.31,0,*50
1505704000.95,31310,13.19,73260.8,-4.37,-5.39,-5.31,0,*58
1505704002.17,31311,13.19,73252.8,-4.37,-5.39,-5.31,0,*59
1505704003.42,31312,13.19,73260.0,-4.37,-5.31,-5.31,0,*52
1505704004.67,31313,13.19,73264.3,-4.37,-5.31,-5.31,0,*53
1505704005.91,31314,13.19,73262.3,-4.37,-5.31,-5.31,0,*54
1505704007.16,31315,13.19,73262.3,-4.37,-5.31,-5.27,0,*52
1505704008.38,31316,13.19,73262.5,-4.37,-5.39,-5.27,0,*59
1505704009.63,31317,13.19,73266.8,-4.37,-5.27,-5.27,0,*57
1505704010.91,31318,13.19,73260.3,-4.35,-5.27,-5.27,0,*5A
1505704012.15,31319,13.19,73264.5,-4.37,-5.27,-5.19,0,*54
1505704013.43,31320,13.19,73264.0,-4.39,-5.23,-5.23,0,*5D
1505704014.7,31321,13.19,73262.0,-4.39,-5.23,-5.23,0,*5C
1505704015.95,31322,13.19,73258.3,-4.37,-5.19,-5.15,0,*5D
1505704017.23,31323,13.19,73260.8,-4.35,-5.19,-5.15,0,*5E
1505704018.47,31324,13.19,73266.0,-4.37,-5.19,-5.19,0,*57
1505704019.75,31325,13.19,73264.0,-4.35,-5.31,-5.19,0,*5E
1505704020.97,31326,13.19,73264.8,-4.37,-5.39,-5.31,0,*5D
1505704022.21,31327,13.19,73264.0,-4.37,-5.27,-5.19,0,*59
1505704023.46,31328,13.19,73274.3,-4.37,-5.27,-5.19,0,*56
1505704024.71,31329,13.19,73268.0,-4.37,-5.31,-5.27,0,*5D
1505704025.96,31330,13.19,73270.8,-4.37,-5.31,-5.27,0,*55
1505704027.17,31331,13.19,73266.8,-4.37,-5.31,-5.39,0,*5B
1505704028.42,31332,13.19,73270.5,-4.37,-5.31,-5.31,0,*50
1505704029.67,31333,13.19,73268.3,-4.37,-5.27,-5.27,0,*51
1505704030.91,31334,13.19,73264.8,-4.37,-5.27,-5.27,0,*56
1505704032.16,31335,13.19,73262.0,-4.37,-5.27,-5.31,0,*50
1505704033.38,31336,13.19,73266.5,-4.37,-5.31,-5.39,0,*5C
1505704034.56,31337,13.19,73260.8,-4.37,-5.39,-5.43,0,*58
1505704035.75,31338,13.13,73260.5,-4.37,-5.39,-5.39,0,*5A
1505704036.94,31339,13.19,73260.3,-4.37,-5.39,-5.39,0,*5B
1505704038.16,31340,13.19,73262.8,-4.39,-5.47,-5.43,0,*5F
1505704039.35,31341,13.13,73262.3,-4.41,-5.43,-5.47,0,*51
1505704040.55,31342,13.19,73262.5,-4.39,-5.43,-5.47,0,*5D
1505704041.74,31343,13.19,73262.0,-4.41,-5.43,-5.43,0,*57
1505704042.94,31344,13.19,73262.8,-4.41,-5.55,-5.43,0,*57
1505704044.14,31345,13.19,73260.8,-4.41,-5.47,-5.55,0,*52
1505704045.39,31346,13.19,73264.5,-4.39,-5.55,-5.61,0,*5A
1505704046.61,31347,13.19,73270.3,-4.39,-5.47,-5.55,0,*5F
1505704047.83,31348,13.19,73266.5,-4.39,-5.47,-5.47,0,*53
1505704049.03,31349,13.19,73268.5,-4.41,-5.47,-5.55,0,*5E
1505704050.25,31350,13.19,73270.0,-4.39,-5.47,-5.51,0,*5D
1505704051.46,31351,13.19,73274.8,-4.39,-5.47,-5.43,0,*5F
1505704052.65,31352,13.19,73266.0,-4.41,-5.43,-5.35,0,*56
1505704053.84,31353,13.19,73268.5,-4.41,-5.43,-5.35,0,*57
1505704055.05,31354,13.19,73270.8,-4.39,-5.43,-5.43,0,*5E
1505704056.24,31355,13.19,73266.5,-4.41,-5.35,-5.43,0,*51
1505704057.43,31356,13.19,73264.8,-4.41,-5.35,-5.35,0,*53
1505704058.62,31357,13.19,73264.5,-4.41,-5.43,-5.47,0,*56
1505704059.81,31358,13.19,73270.3,-4.41,-5.43,-5.43,0,*5D
1505704061.01,31359,13.19,73270.3,-4.41,-5.47,-5.47,0,*5C
1505704062.22,31360,13.19,73270.8,-4.39,-5.47,-5.47,0,*59
1505704063.41,31361,13.19,73272.3,-4.41,-5.43,-5.43,0,*57
1505704064.6,31362,13.19,73268.0,-4.41,-5.35,-5.43,0,*55
1505704065.79,31363,13.19,73264.8,-4.41,-5.35,-5.43,0,*54
1505704067.01,31364,13.19,73264.0,-4.43,-5.39,-5.47,0,*59
1505704068.22,31365,13.19,73270.8,-4.43,-5.39,-5.39,0,*51
1505704069.42,31366,13.19,73270.5,-4.41,-5.47,-5.39,0,*59
1505704070.61,31367,13.19,73268.3,-4.41,-5.35,-5.35,0,*51
1505704071.8,31368,13.19,73268.3,-4.41,-5.35,-5.35,0,*5E
1505704073.05,31369,13.19,73270.3,-4.43,-5.39,-5.27,0,*52
1505704074.27,31370,13.19,73266.3,-4.43,-5.47,-5.35,0,*50
1505704075.48,31371,13.19,73264.3,-4.43,-5.39,-5.35,0,*58
1505704076.7,31372,13.19,73270.0,-4.43,-5.39,-5.35,0,*5B
1505704077.91,31373,13.19,73268.3,-4.43,-5.39,-5.43,0,*5B
1505704079.13,31374,13.19,73270.5,-4.43,-5.47,-5.39,0,*58
1505704080.35,31375,13.19,73266.8,-4.43,-5.39,-5.39,0,*50
1505704081.56,31376,13.19,73270.3,-4.43,-5.39,-5.39,0,*53
1505704082.76,31377,13.19,73270.3,-4.45,-5.43,-5.51,0,*57
1505704083.97,31378,13.19,73268.0,-4.43,-5.39,-5.39,0,*5D
1505704085.21,31379,13.19,73270.5,-4.43,-5.27,-5.35,0,*5F
1505704086.43,31380,13.19,73268.3,-4.43,-5.35,-5.39,0,*56
1505704087.65,31381,13.19,73270.5,-4.43,-5.35,-5.39,0,*57
1505704088.86,31382,13.19,73270.8,-4.43,-5.35,-5.35,0,*58
1505704090.13,31383,13.19,73268.3,-4.43,-5.27,-5.27,0,*59
1505704091.38,31384,13.19,73268.0,-4.43,-5.35,-5.27,0,*5D
1505704092.64,31385,13.19,73268.8,-4.41,-5.23,-5.23,0,*5D
1505704093.91,31386,13.19,73260.5,-4.43,-5.27,-5.27,0,*5C
1505704095.18,31387,13.19,73270.0,-4.43,-5.27,-5.27,0,*5D
1505704096.46,31388,13.19,73268.8,-4.43,-5.23,-5.23,0,*52
1505704097.73,31389,13.19,73266.8,-4.43,-5.23,-5.23,0,*53
1505704099.01,31390,13.19,73266.3,-4.43,-5.27,-5.27,0,*5B
1505704100.26,31391,13.19,73266.3,-4.41,-5.31,-5.31,0,*58
1505704101.51,31392,13.19,73264.5,-4.41,-5.23,-5.23,0,*5B
1505704102.76,31393,13.19,73264.3,-4.41,-5.31,-5.31,0,*5A
1505704104.0,31394,13.19,73266.8,-4.43,-5.27,-5.35,0,*5C
1505704105.26,31395,13.19,73266.5,-4.41,-5.23,-5.23,0,*5C
1505704106.53,31396,13.19,73268.5,-4.39,-5.23,-5.31,0,*53
1505704107.8,31397,13.19,73270.5,-4.43,-5.27,-5.27,0,*5C
1505704109.07,31398,13.19,73274.3,-4.39,-5.23,-5.23,0,*5E
1505704110.33,31399,13.19,73274.3,-4.41,-5.31,-5.23,0,*53
1505704111.58,31400,13.19,73270.8,-4.41,-5.23,-5.23,0,*57
1505704112.84,31401,13.19,73272.5,-4.41,-5.23,-5.23,0,*56
1505704114.11,31402,13.19,73268.0,-4.39,-5.31,-5.23,0,*59
1505704115.35,31403,13.19,73268.3,-4.43,-5.27,-5.35,0,*55
1505704116.6,31404,13.19,73272.5,-4.41,-5.23,-5.23,0,*53